Location: Équennes
(49.7375°N, 1.9622°E)
Time: 01:45:21
(UTC+00:00)

ATLAS 5 CENTAUR R/B - Pass Details

Date: 28 January 2023
Orbit: 460 x 1178 km, 63.3° (Epoch: 24 March)

Event Time Altitude Azimuth Distance (km) Brightness Sun altitude
Rises 17:11:35 0° 230° (SW) 2,497 6.4 -5.5°
Reaches altitude 10° 17:13:37 10° 234° (SW) 1,656 5.3 -5.8°
Maximum altitude 17:17:14 64° 317° (NW) 578 1.6 -6.3°
Drops below altitude 10° 17:21:23 10° 39° (NE) 1,904 3.6 -7.0°
Enters shadow 17:22:25 - 41° (NE) 2,327 4.0 -7.1°
